Weather History for Kansas City International, MO

Change the Weather History Date:

Wednesday, May 22, 2013

  Actual Average Record
Temperature  
Mean Temperature 60 °F 66 °F  
Max Temperature 68 °F 77 °F 93 °F (1956)
Min Temperature 52 °F 56 °F 41 °F (1963)
Degree Days  
Heating Degree Days 5 2  
Month to date heating degree days 146 89  
Since 1 July heating degree days 5175 5109  
Cooling Degree Days 0 4  
Month to date cooling degree days 48 47  
Year to date cooling degree days 61 75  
Growing Degree Days 10 (Base 50)    
Moisture  
Dew Point 49 °F    
Average Humidity 70    
Maximum Humidity 83    
Minimum Humidity 56    
Precipitation  
Precipitation 0.00 in 0.17 in 2.23 in (1968)
Month to date precipitation 2.91 3.72  
Year to date precipitation 11.38 12.32  
Snow  
Snow 0.00 in 0.00 in 0.00 in ()
Month to date snowfall 0.5 0.0  
Since 1 July snowfall 31.8 18.8  
Snow Depth 0.00 in    
Sea Level Pressure  
Sea Level Pressure 29.81 in    
Wind  
Wind Speed 9 mph (WNW)    
Max Wind Speed 17 mph    
Max Gust Speed 23 mph    
Visibility 10 miles    
Events      
T = Trace of Precipitation, MM = Missing Value Source: NWS Daily Summary

Daily Weather History Graph

Daily Weather History Graph

Search for Another Location

Airport:

Trip Planner

Search our weather history database for the weather conditions in past years. The results will help you decide how hot, cold, wet, or windy it might be!

Date:

Astronomy

May. 22, 2013 Rise Set
Actual Time 5:59 AM CDT 8:32 PM CDT
Civil Twilight 5:28 AM CDT 9:03 PM CDT
Nautical Twilight 4:50 AM CDT 9:41 PM CDT
Astronomical Twilight 4:07 AM CDT 10:24 PM CDT
Moon 5:56 PM CDT (5/22) 4:03 AM CDT (5/22)
Length of Visible Light 15h 34m
Length of Day
14h 32m
Waxing Gibbous, 91% of the Moon is Illuminated
May 22
Waxing Gibbous
May 24
Full
May 31
Last Quarter
Jun 8
New
Jun 16
First Quarter

Hourly Weather History & Observations

Time (CDT) Temp. Dew Point Humidity Pressure Visibility Wind Dir Wind Speed Gust Speed Precip Events Conditions
12:53 AM 59.0 °F 48.0 °F 67% 29.74 in 10.0 mi WSW 3.5 mph - N/A   Mostly Cloudy
1:53 AM 57.9 °F 48.9 °F 72% 29.73 in 10.0 mi West 4.6 mph - N/A   Overcast
2:53 AM 57.0 °F 48.9 °F 74% 29.73 in 10.0 mi West 5.8 mph - N/A   Mostly Cloudy
3:53 AM 57.0 °F 48.9 °F 74% 29.73 in 10.0 mi WNW 8.1 mph - N/A   Mostly Cloudy
4:53 AM 55.0 °F 48.0 °F 77% 29.73 in 10.0 mi West 6.9 mph - N/A   Scattered Clouds
5:53 AM 53.1 °F 48.0 °F 83% 29.73 in 10.0 mi West 5.8 mph - N/A   Scattered Clouds
6:53 AM 54.0 °F 48.0 °F 80% 29.75 in 10.0 mi West 8.1 mph - N/A   Mostly Cloudy
7:53 AM 55.9 °F 48.0 °F 75% 29.76 in 10.0 mi West 10.4 mph - N/A   Scattered Clouds
8:53 AM 57.9 °F 48.0 °F 70% 29.78 in 8.0 mi West 9.2 mph 23.0 mph N/A   Mostly Cloudy
9:53 AM 57.9 °F 48.0 °F 70% 29.80 in 9.0 mi WNW 13.8 mph 18.4 mph N/A   Mostly Cloudy
10:53 AM 59.0 °F 48.0 °F 67% 29.82 in 10.0 mi WNW 11.5 mph 17.3 mph N/A   Mostly Cloudy
11:53 AM 62.1 °F 48.9 °F 62% 29.83 in 10.0 mi WNW 10.4 mph - N/A   Mostly Cloudy
12:53 PM 63.0 °F 50.0 °F 63% 29.83 in 10.0 mi West 12.7 mph 18.4 mph N/A   Mostly Cloudy
1:53 PM 63.0 °F 48.9 °F 60% 29.83 in 10.0 mi West 9.2 mph - N/A   Mostly Cloudy
2:53 PM 64.0 °F 48.9 °F 58% 29.83 in 10.0 mi West 12.7 mph 18.4 mph N/A   Overcast
3:53 PM 64.9 °F 48.9 °F 56% 29.83 in 10.0 mi West 11.5 mph - N/A   Mostly Cloudy
4:53 PM 64.9 °F 50.0 °F 58% 29.83 in 10.0 mi WSW 10.4 mph - N/A   Overcast
5:53 PM 66.0 °F 50.0 °F 56% 29.83 in 10.0 mi WNW 9.2 mph 18.4 mph N/A   Mostly Cloudy
6:53 PM 64.9 °F 50.0 °F 58% 29.84 in 10.0 mi West 10.4 mph 17.3 mph N/A   Overcast
7:53 PM 64.0 °F 50.0 °F 60% 29.86 in 10.0 mi NW 8.1 mph - N/A   Mostly Cloudy
8:53 PM 62.1 °F 48.9 °F 62% 29.90 in 10.0 mi NW 8.1 mph - N/A   Overcast
9:53 PM 61.0 °F 48.9 °F 64% 29.92 in 10.0 mi NNW 4.6 mph - N/A   Overcast
10:53 PM 60.1 °F 48.9 °F 67% 29.94 in 10.0 mi NW 4.6 mph - N/A   Overcast
11:53 PM 57.0 °F 48.0 °F 72% 29.94 in 10.0 mi West 4.6 mph - N/A   Partly Cloudy